{"data":{"norad_id":55763,"epoch":"2026-05-25T04:38:10.122144Z","epoch_age_seconds":55199,"freshness":"FRESH","line1":"1 55763U 23028Y   26145.19317271 -.00000035  00000+0  48571-5 0  9998","line2":"2 55763  70.0003  51.4061 0002807 267.6429  92.4409 14.98330903177506","mean_motion":14.98330903,"eccentricity":0.0002807,"inclination_deg":70.0003,"raan_deg":51.4061,"arg_perigee_deg":267.6429,"mean_anomaly_deg":92.4409,"bstar":4.8571e-6,"rev_number":17750,"period_min":96.106941204829,"perigee_km":570.10218013216,"apogee_km":574.00401685346,"semimajor_km":6950.1900984928,"source":"CELESTRAK","updated_at":"2026-05-25T13:38:17.882002Z"}}